SCP
0 0 0 0 0 0 0 0 0 0 0 0 0 0 0 0 0 0 0 0 0 0 0 0 0 0 0 0 0 0 0 0 0 0 0 0 0 0 0 0 0 0 0
0 0 0 0 0 0 0 0 0 0 0 0 0 0 0 0 0 0 0 0 0 0 0 0 0 0 0 0 0 0 0 0 0 0 0 0 0 0 0 0 0 0 0
0 0 0 0 0 0 0 0 0 0 0 0 0 0 0 0 0 0 0 0 0 0 0 0 0 0 0 0 0 0 0 0 0 0 0 0 0 0 0 0 0 0 0
0 0 0 0 0 0 0 0 0 0 0 0 0 0 0 0 0 0 0 0 0 0 0 0 0 0 0 0 0 0 0 0 0 0 0 0 0 0 0 0 0 0 0
0 0 0 0 0 0 0 0 0 0 0 0 0 0 0 0 0 0 0 0 0 0 0 0 0 0 0 0 0 0 0 0 0 0 0 0 0 0 0 0 0 0 0
0 0 0 0 0 0 0 0 0 0 0 0 0 0 0 0 0 0 0 0 0 0 0 0 0 0 0 0 0 0 0 0 0 0 0 0 0 0 0 0 0 0 0
0 0 0 0 0 0 0 0 0 0 0 0 0 0 0 0 0 0 0 0 0 0 0 0 0 0 0 0 0 0 0 0 0 0 0 0 0 0 0 0 0 0 0
0 0 0 0 0 0 0 0 0 0 0 0 0 0 0 0 0 0 0 0 0 0 0 0 0 0 0 0 0 0 0 0 0 0 0 0 0 0 0 0 0 0 0
0 0 0 0 0 0 0 0 0 0 0 0 0 0 0 0 0 0 0 0 0 0 0 0 0 0 0 0 0 0 0 0 0 0 0 0 0 0 0 0 0 0 0
0 0 0 0 0 0 0 0 0 0 0 0 0 0 0 0 0 0 0 0 0 0 0 0 0 0 0 0 0 0 0 0 0 0 0 0 0 0 0 0 0 0 0
0 0 0 0 0 0 0 0 0 0 0 0 0 0 0 0 0 0 0 0 0 0 0 0 0 0 0 0 0 0 0 0 0 0 0 0 0 0 0 0 0 0 0
0 0 0 0 0 0 0 0 0 0 0 0 0 0 0 -0 -0 0 0 0 0 0 0 0 0 0 0 0 0 0 0 0 0 0 0 0 0 0 0 0 0 0 0
0 0 0 0 0 0 0 0 0 0 0 0 -0 -0 -0 -0 0 0 0 0 0 0 0 0 0 0 0 0 0 0 0 0 0 0 0 0 0 0 0 0 0 0 0
0 0 0 0 0 0 0 0 0 0 0 0 -0 -0 -0 -0 0 0 0 0 0 0 0 0 0 0 0 0 0 0 0 0 0 0 0 0 0 0 0 0 0 0 0
0 0 0 0 0 0 0 0 0 0 0 -0 -0 -0 -0 0 0 0 0 0 -0 -0 0 0 0 0 0 0 0 0 0 0 0 0 0 0 0 0 0 0 0 0 0
0 0 0 0 0 0 0 0 0 0 0 -0 -0 -0 0 0 0 0 0 0 -0 -0 -0 0 0 0 0 0 0 0 0 0 0 0 0 0 0 0 0 0 0 0 0
0 0 0 0 0 0 0 0 0 0 0 0 -0 0 0 0 0 0 0 0 0 -0 -0 0 0 0 0 0 0 0 0 0 0 0 0 0 0 0 0 0 0 0 0
0 0 0 0 0 0 0 0 0 0 0 0 0 0 0 0 0 0 0 0 0 0 0 0 0 0 0 0 0 0 0 0 0 0 0 0 0 0 0 0 0 0 0
0 0 0 0 0 0 0 0 0 0 0 0 0 0 0 0 0 0 0 0 0 0 0 0 0 0 0 0 0 0 0 0 0 0 0 0 0 0 0 0 0 0 0
0 0 0 0 0 0 0 0 0 0 0 0 0 0 0 0 0 0 0 0 0 0 0 0 0 0 0 0 0 0 0 0 0 0 0 0 0 0 0 0 0 0 0
0 0 0 0 0 0 0 0 0 0 0 0 0 0 0 0 0 0 0 0 0 0 0 0 0 0 0 0 0 0 0 0 0 0 0 0 0 0 0 0 0 0 0
0 0 0 0 0 0 0 0 0 0 0 0 0 0 0 0 0 0 0 0 0 0 0 0 0 0 0 0 0 0 0 0 0 0 0 0 0 0 0 0 0 0 0
0 0 0 0 0 0 0 0 0 0 0 0 0 0 0 0 0 0 0 0 0 0 0 0 0 0 0 0 0 0 0 0 0 0 0 0 0 0 0 0 0 0 0
0 0 0 0 0 0 0 0 0 0 0 0 0 0 0 0 0 0 0 0 0 0 0 0 0 0 0 0 0 0 0 0 0 0 0 0 0 0 0 0 0 0 0
0 0 0 0 0 0 0 0 0 0 0 0 0 0 0 0 0 0 0 0 0 0 0 0 -0 -0 0 0 0 0 0 0 0 0 0 0 0 0 0 0 0 0 0
0 0 0 0 0 0 0 0 0 0 0 0 0 0 0 0 0 0 0 0 0 0 0 0 -0 -0 0 0 0 0 0 0 0 0 0 0 0 0 0 0 0 0 0
Wind_Speed
0 1 6 9 11 11 11 12 12 13 13 13 13 13 13 13 13 13 12 12 12 11 11 10 10 10 10 9 8 8 8 8 8 8 8 8 7 6 6 7 7 5 8
3 2 8 10 12 12 12 13 13 13 13 12 12 12 12 12 12 12 12 12 11 11 10 10 9 9 9 9 8 8 8 8 7 8 8 7 7 6 6 7 7 5 7
5 4 7 11 12 12 13 13 13 13 13 12 12 11 11 11 11 11 11 11 10 10 9 9 8 8 8 8 8 8 7 7 7 8 7 3 4 7 8 8 8 7 7
6 5 7 11 12 12 13 13 12 12 12 12 11 11 11 11 11 10 10 10 9 9 8 8 7 7 7 8 7 7 7 7 8 7 4 3 3 7 8 8 7 7 7
6 5 7 11 12 12 12 12 12 11 11 11 10 10 10 10 10 10 9 9 8 8 7 7 6 6 7 7 7 7 8 8 9 7 4 4 3 7 7 7 7 7 7
6 5 7 12 12 12 12 12 11 11 11 10 9 9 9 9 9 9 8 8 8 7 6 6 5 5 6 7 7 7 8 9 7 4 3 3 3 7 8 7 7 6 6
6 5 6 11 11 11 11 11 10 10 10 9 8 8 8 8 8 8 7 8 7 7 6 5 4 5 5 6 7 7 7 8 5 3 3 3 3 7 8 7 7 6 6
7 5 6 10 11 11 11 10 9 9 8 8 7 7 7 6 6 6 6 6 6 6 5 5 4 4 4 5 6 7 7 6 5 4 3 2 5 7 8 7 7 6 6
6 5 4 4 6 9 9 9 8 7 6 6 6 6 5 5 5 5 5 5 5 4 4 3 2 3 4 5 5 6 7 7 4 2 3 2 5 7 7 7 6 6 6
5 4 4 3 3 3 3 7 6 6 6 5 5 5 4 4 4 4 3 3 3 3 2 2 2 2 3 4 5 6 7 6 3 2 1 2 6 7 7 7 6 6 6
5 3 3 3 2 2 2 4 4 4 4 3 3 3 2 1 1 1 1 2 2 2 3 2 2 3 4 4 5 6 5 2 2 1 1 4 5 6 7 7 7 6 6
5 4 4 4 3 2 2 2 1 1 1 1 1 1 1 1 0 0 1 2 2 3 4 4 3 4 3 2 4 4 2 2 2 1 2 5 6 7 7 7 7 7 7
5 5 5 4 3 3 1 2 1 1 1 1 1 1 1 1 1 1 1 2 3 4 3 4 4 2 2 2 2 2 2 2 1 1 2 7 8 8 8 8 8 7 7
5 4 4 4 3 2 2 2 1 1 1 1 1 2 2 1 1 1 1 1 2 2 2 2 2 3 3 3 3 3 3 2 2 2 3 8 9 9 9 8 8 7 7
4 4 4 4 4 3 3 2 2 2 1 1 2 2 2 2 2 1 1 1 2 2 2 2 3 3 4 4 4 5 4 4 3 3 3 7 9 9 9 8 8 7 7
5 5 4 5 5 4 4 3 2 2 2 3 2 2 3 2 2 2 2 2 2 2 2 2 3 3 3 3 4 4 4 4 4 4 3 4 8 8 9 9 8 8 8
5 5 5 5 5 5 5 4 3 3 3 3 3 3 3 3 3 3 3 3 2 2 3 3 4 4 4 4 4 4 4 4 4 4 4 3 4 8 9 10 10 9 9
6 5 4 5 5 5 4 4 3 3 4 3 3 3 4 4 4 4 3 3 3 3 3 3 3 4 4 3 3 3 3 3 4 4 4 3 3 4 7 10 11 10 10
6 6 5 5 5 4 4 4 4 4 4 3 3 3 4 4 4 4 3 3 3 3 3 3 3 3 3 3 3 4 4 3 3 4 4 4 4 4 4 7 10 11 11
7 6 6 5 5 5 4 4 3 4 3 3 3 3 4 4 4 4 4 4 4 4 3 3 3 3 3 2 4 5 4 4 4 4 4 4 3 4 4 5 5 7 11
6 6 5 5 4 4 3 3 3 2 2 3 3 4 4 4 5 5 4 4 4 4 3 3 3 4 4 2 4 4 4 5 5 4 4 4 5 4 4 4 4 4 5
7 6 5 6 5 4 3 3 2 2 2 1 2 3 4 4 4 4 4 3 3 4 5 4 3 3 3 3 3 3 3 4 4 5 4 4 4 4 4 4 4 4 4
7 7 7 6 5 4 4 4 3 3 3 3 3 2 3 4 4 4 4 4 3 3 3 3 3 4 2 3 3 3 3 1 1 3 4 4 4 4 3 3 4 4 4
8 7 7 6 6 5 5 5 5 4 2 1 1 1 2 3 4 4 4 4 4 3 3 3 4 3 3 2 2 2 2 3 3 1 3 3 4 4 4 4 4 4 4
8 7 6 6 5 5 5 6 6 4 2 2 2 3 2 3 3 3 4 4 4 3 3 4 4 4 3 2 2 1 3 3 3 3 1 3 3 3 3 3 3 3 4
6 6 6 6 5 5 5 5 6 6 5 4 3 2 1 1 2 3 3 4 4 3 3 3 3 4 3 4 3 3 2 2 1 2 2 0 1 2 3 3 3 3 3
Wind_Direction
117 147 110 105 103 102 100 98 97 97 94 91 88 86 85 83 82 82 82 82 80 77 75 75 73 74 75 75 75 72 72 75 75 76 74 72 72 74 83 91 90 85 90
151 125 110 105 101 99 99 98 97 97 95 92 90 88 86 84 83 81 82 83 81 79 76 74 72 70 70 69 69 69 66 68 72 75 71 65 68 71 86 98 97 92 90
118 108 108 105 103 101 100 100 98 97 96 94 93 92 89 85 84 82 82 80 79 79 78 74 70 69 66 65 63 61 57 61 72 76 71 50 59 72 84 94 95 92 93
118 112 110 107 105 104 103 101 99 97 97 96 94 92 91 88 86 84 83 82 80 80 80 74 69 67 64 60 55 53 53 60 72 78 62 44 59 79 82 87 89 88 91
111 107 113 110 108 105 104 104 105 102 101 99 95 92 91 90 89 86 82 82 83 84 84 80 70 62 59 55 48 46 54 67 73 71 60 51 54 80 80 83 86 85 88
112 111 116 115 113 110 108 107 106 105 102 100 96 94 93 91 89 89 85 84 86 86 85 80 71 62 56 51 44 44 56 68 74 68 64 58 62 83 82 84 85 81 86
121 119 123 118 118 118 116 113 110 108 106 103 100 98 96 94 94 92 87 86 87 87 87 80 70 59 51 45 42 46 57 77 80 67 66 64 77 84 82 83 83 79 80
130 127 123 123 123 124 123 120 117 115 112 110 109 107 103 102 103 103 94 89 87 83 79 74 65 48 41 38 39 43 48 64 80 79 62 61 88 87 83 81 81 76 76
129 123 116 125 125 130 129 127 124 122 120 116 116 117 118 112 108 108 105 94 90 88 81 75 61 27 21 26 29 42 52 61 70 72 73 70 90 88 82 77 80 77 75
124 129 135 134 125 123 130 135 131 128 124 118 118 120 114 106 103 103 105 98 95 93 80 62 34 3 3 18 29 45 51 56 57 61 46 85 90 88 81 76 79 77 73
141 146 155 157 153 150 164 145 129 126 121 110 104 113 93 58 40 51 72 89 74 60 44 22 355 358 14 27 38 46 50 50 55 42 33 82 84 88 84 76 76 76 74
152 170 178 172 176 173 169 110 91 88 74 61 58 57 69 89 359 20 352 2 9 14 10 11 4 7 18 27 37 46 56 48 54 43 56 72 82 89 83 76 70 68 70
151 153 166 169 172 157 130 118 73 56 51 34 58 114 85 69 33 27 4 355 1 7 5 8 14 22 33 49 62 70 69 61 49 36 56 74 82 84 81 77 71 65 63
126 141 151 150 144 142 126 112 107 94 72 52 54 111 109 86 61 41 24 4 7 9 13 16 26 41 55 64 79 76 70 75 63 49 63 77 78 76 74 71 66 62 60
116 122 132 130 128 126 111 102 98 97 94 84 71 87 111 106 89 64 42 32 23 28 40 44 53 58 61 65 77 81 76 73 74 62 55 74 76 71 68 65 63 59 57
126 121 116 112 113 111 103 98 93 88 81 73 63 59 87 95 91 77 59 44 33 36 55 67 65 66 62 71 71 71 74 72 70 71 59 62 70 68 64 60 59 56 53
139 129 123 119 103 97 96 96 87 76 75 66 52 52 72 80 82 78 64 48 36 43 57 60 53 56 63 66 62 68 79 80 75 68 62 50 51 59 60 57 55 52 48
137 129 123 113 101 94 94 94 86 73 73 67 59 55 63 74 79 75 66 50 40 50 58 66 54 56 53 56 56 58 66 70 71 70 63 56 50 49 48 52 52 49 44
145 137 124 111 106 100 94 87 81 74 68 62 57 56 57 62 70 76 69 53 52 56 51 67 58 67 63 58 72 61 53 58 59 68 63 59 56 54 44 48 49 46 42
147 141 130 114 112 107 92 78 68 62 56 56 57 57 59 59 65 71 68 55 57 61 51 58 64 56 63 62 75 62 45 44 49 54 53 54 54 54 48 44 36 38 40
144 139 134 124 126 118 103 96 87 75 58 54 57 59 59 61 70 75 72 61 60 66 62 63 73 62 45 50 71 51 28 33 44 40 42 50 46 43 48 48 39 33 30
154 148 142 137 139 133 129 126 125 120 91 75 51 49 52 60 64 81 81 74 67 68 57 54 65 71 43 41 91 88 42 13 14 26 33 52 47 43 48 53 49 42 35
160 161 155 150 145 138 128 107 89 68 53 45 42 36 33 60 69 78 81 81 73 75 72 60 68 82 73 33 56 117 124 156 353 360 21 34 39 44 36 38 44 38 34
171 164 156 152 148 143 132 126 126 125 129 159 134 77 40 53 67 77 82 83 78 73 74 64 67 74 90 62 23 46 105 143 129 49 353 6 28 41 33 39 37 35 32
166 163 160 152 150 146 139 140 134 131 140 129 100 82 57 41 53 66 77 79 79 76 76 69 64 66 74 85 72 61 62 57 75 118 81 347 6 15 25 28 30 32 30
159 156 156 153 154 152 146 146 145 143 138 125 115 106 77 46 41 48 72 75 79 81 78 77 76 76 72 72 70 72 90 94 95 108 125 73 6 345 10 16 20 18 20